Location: Enikep?du
(16.5133°N, 80.7066°E)
Time: 00:29:10
(UTC+00:00)

Daily predictions for brighter satellites

Satellite Brightness Start Highest point End
(mag) Time Altitude Azimuth Time Altitude Azimuth Time Altitude Azimuth
CZ-3B R/B 1.9 00:05:03 21° NNW 00:06:31 29° NNE 00:09:57 10° E
Cosmos 44 3.1 00:04:13 20° NW 00:07:13 62° WSW 00:11:51 10° SSE
Cosmos 923 Rocket 3.9 00:02:31 10° SSW 00:07:43 76° WNW 00:12:57 10° N
STARLINK 1029 2.7 00:05:30 17° SW 00:07:45 65° NW 00:10:50 10° NNE
STARLINK 1032 3.0 00:04:17 10° SW 00:07:46 77° NW 00:11:16 10° NNE
STARLINK 1011 3.0 00:06:44 10° SW 00:10:13 71° NW 00:13:43 10° NNE
Cosmos 2181 Rocket 4.2 00:05:40 10° S 00:11:45 76° E 00:17:56 10° N
Cosmos 1726 2.0 00:08:17 10° S 00:11:59 87° E 00:15:39 10° N
STARLINK 1036 3.1 00:09:13 10° SW 00:12:41 65° NW 00:16:10 10° NNE
Delta 2 Rocket 3.9 00:09:09 12° WSW 00:15:24 83° NNW 00:21:26 10° ENE
STARLINK 1047 3.2 00:14:14 10° SW 00:17:41 54° NW 00:21:07 10° NNE
STARLINK 1037 3.2 00:14:24 10° SW 00:17:50 53° NW 00:21:17 10° NNE
COSMO-SKYMED 1 2.5 00:13:50 10° S 00:18:10 78° WSW 00:22:30 10° NNW
Cosmos 1953 3.1 00:16:21 10° SW 00:19:54 30° W 00:23:29 10° NNW
STARLINK 1059 3.3 00:16:58 10° SW 00:20:22 49° NW 00:23:47 10° NNE
Skynet4D Del rocket 4.3 00:15:45 10° SW 00:21:16 52° SSE 00:26:28 10° ENE
Lacrosse 5 1.8 00:16:12 10° SSW 00:21:17 87° WNW 00:26:22 10° NNE
Cosmos 1606 Rocket 3.6 00:17:17 10° SSW 00:21:42 61° W 00:26:05 10° N
Cosmos 2219 4.0 00:17:47 14° NW 00:21:54 31° WSW 00:26:52 10° SSW
STARLINK 1057 3.5 00:19:32 10° SW 00:22:54 44° NW 00:26:17 10° NNE
Cosmos 1726 Rocket 3.5 00:19:53 10° S 00:24:19 77° W 00:28:46 10° N
SMAP 4.3 00:20:31 10° NNE 00:24:58 46° E 00:29:25 10° S
STARLINK 1052 3.6 00:22:07 10° SW 00:25:27 41° NW 00:28:48 10° NNE
Cosmos 2082 3.8 00:20:31 10° NNW 00:26:14 84° ENE 00:31:56 10° SSE
STARLINK 1068 3.7 00:24:43 10° WSW 00:28:01 37° NW 00:31:19 10° NNE
Cosmos 2322 Rocket 2.4 00:22:42 10° S 00:28:18 77° ESE 00:33:57 10° NNE
BREEZE-M DEB (TANK) 4.1 00:23:41 10° NNW 00:28:56 25° NNE 00:31:21 10° E
GPS 2-17 Rocket1 3.2 00:26:47 14° WNW 00:30:33 59° N 00:34:54 10° E
NOSS 3-4 (A) 3.8 00:25:47 10° SW 00:31:13 37° WNW 00:36:41 10° N
NOSS 3-4 (C) 3.8 00:25:52 10° SW 00:31:19 37° WNW 00:36:49 10° N
STARLINK 1060 3.9 00:29:58 10° WSW 00:33:09 32° NW 00:36:21 10° NNE
Cosmos 2341 Rocket 4.2 00:27:15 10° N 00:33:29 78° E 00:39:40 10° S
Delta 2 Rocket 3.2 00:31:11 11° NW 00:34:18 55° NNE 00:37:38 10° ESE
STARLINK 1030 4.0 00:32:34 10° WSW 00:35:43 30° NW 00:38:53 10° NNE
USA 32 4.4 00:31:01 10° N 00:36:14 71° E 00:41:27 10° S
STARLINK 1020 4.1 00:35:15 10° WSW 00:38:20 28° NW 00:41:24 10° N
Cosmos 2297 Rocket 2.9 00:33:33 10° NW 00:38:30 32° WSW 00:43:28 10° SSW
RESURS DK-1 3.8 00:34:51 10° S 00:38:45 43° ESE 00:42:39 10° NE
STARLINK 1028 4.4 00:36:49 10° W 00:38:47 17° NW 00:40:46 10° N
STARLINK 1021 4.4 00:37:05 10° W 00:39:02 16° NW 00:40:59 10° N
STARLINK 1019 4.4 00:37:20 10° W 00:39:15 16° NW 00:41:11 10° N
STARLINK 1012 4.4 00:37:33 10° W 00:39:28 16° NW 00:41:24 10° N
STARLINK 1010 4.4 00:37:46 10° W 00:39:41 16° NW 00:41:36 10° N
STARLINK 1026 4.4 00:38:01 10° W 00:39:55 16° NW 00:41:49 10° N
STARLINK 1013 4.4 00:38:15 10° W 00:40:08 16° NW 00:42:02 10° N
STARLINK 1009 4.4 00:38:29 10° W 00:40:22 16° NW 00:42:15 10° N
STARLINK 1015 4.4 00:38:43 10° W 00:40:35 16° NW 00:42:27 10° N
STARLINK 1016 4.4 00:38:58 10° W 00:40:49 16° NW 00:42:41 10° N
STARLINK 1034 4.2 00:37:56 10° WSW 00:40:56 26° NW 00:43:57 10° N
STARLINK 1008 4.5 00:39:12 10° W 00:41:03 15° NW 00:42:53 10° N
STARLINK 1014 4.5 00:39:33 10° W 00:41:24 15° NW 00:43:14 10° N
STARLINK 1025 4.5 00:39:42 10° W 00:41:30 15° NW 00:43:19 10° N
STARLINK 1017 4.5 00:39:55 10° W 00:41:43 15° NW 00:43:32 10° N
STARLINK 1023 4.5 00:40:10 10° W 00:41:57 15° NW 00:43:44 10° NNW
STARLINK 1007 4.5 00:40:24 10° W 00:42:11 15° NW 00:43:58 10° NNW
STARLINK 1033 4.4 00:43:20 10° WSW 00:46:11 22° NW 00:49:02 10° N
Cosmos 2227 Rocket 3.2 00:45:46 10° NW 00:50:26 27° WSW 00:55:07 10° SSW
